Location: Grossmotten
(48.5500°N, 15.3833°E)
Time: 08:33:19
(UTC+00:00)

CZ-4B R/B - Pass Details

Date: 15 November 2019
Orbit: 498 x 646 km, 97.7° (Epoch: 13 December)

Event Time Altitude Azimuth Distance (km) Brightness Sun altitude
Rises 03:29:02 0° 15° (NNE) 2,952 7.7 -25.8°
Reaches altitude 10° 03:31:16 10° 19° (NNE) 2,048 6.9 -25.5°
Maximum altitude 03:35:44 65° 101° (ESE) 712 4.5 -24.7°
Drops below altitude 10° 03:40:11 10° 184° (S) 2,038 6.7 -24.0°
Sets 03:42:23 0° 187° (S) 2,936 7.5 -23.6°
